Dewpoint
60 60 60 60 60 60 60 60 59 60 60 60 60 61 61 62 60 58 40 48 72 76 73 64 63 63 65 63 62 61 53 50 51 53 53 55 53 56 56 56 57 58 59 61 66
59 59 59 59 60 60 59 59 59 59 60 60 60 61 61 62 56 42 51 75 77 76 66 59 60 62 60 61 62 59 54 53 54 54 54 55 53 55 54 54 54 58 60 65 67
59 59 59 59 59 58 58 58 59 59 59 59 60 61 61 61 44 34 64 77 77 73 64 63 62 61 61 60 58 59 54 57 54 56 58 56 55 56 53 52 54 57 61 64 65
58 58 58 57 58 58 58 59 59 59 59 59 60 61 63 57 37 51 75 77 76 67 65 62 61 59 59 54 57 54 55 56 57 61 57 55 55 56 54 55 54 57 62 63 64
58 57 56 56 57 57 58 59 59 59 59 59 60 62 54 26 26 71 76 77 72 67 64 62 61 59 55 56 56 55 53 55 57 56 57 58 56 56 55 55 54 55 61 61 62
57 57 57 58 58 58 59 59 59 58 59 59 60 63 48 18 44 74 74 74 71 68 57 54 55 58 45 54 54 54 54 56 57 59 57 55 56 57 55 54 53 55 59 60 60
57 58 58 58 58 58 58 58 58 58 58 59 60 58 41 6 51 66 70 70 60 64 48 48 51 48 40 48 53 49 50 53 52 56 53 54 53 54 54 54 53 52 55 58 58
57 57 58 58 58 58 57 56 57 58 59 60 61 54 31 30 48 51 52 44 43 53 43 47 50 47 38 38 39 48 49 48 51 53 54 52 49 54 55 53 52 52 52 53 55
57 57 57 57 57 56 55 55 57 59 60 61 52 48 36 48 35 39 47 44 40 37 38 42 44 40 34 30 30 41 39 44 51 54 52 51 50 52 56 52 52 52 52 52 52
57 57 57 57 55 55 54 56 56 57 59 57 52 36 35 31 28 26 44 44 42 43 44 44 39 36 33 31 26 35 38 36 43 51 51 51 52 53 55 52 51 52 52 52 52
57 57 56 55 55 54 53 45 36 35 50 35 26 20 32 37 26 17 22 35 39 26 30 34 32 31 33 31 29 31 32 33 40 51 50 50 50 54 53 52 51 51 51 52 52
56 56 55 54 54 54 51 42 40 38 35 33 38 38 37 38 34 29 32 35 29 24 24 21 19 20 21 23 25 24 27 34 40 51 49 50 48 50 54 51 51 50 50 50 50
56 55 54 54 54 51 46 42 44 44 33 32 33 33 31 36 32 30 28 34 31 25 22 20 19 21 18 15 15 17 30 29 38 51 49 48 46 49 52 54 53 52 50 50 49
55 54 53 53 46 49 44 46 47 42 30 30 30 29 28 27 24 26 19 30 30 26 24 22 20 18 12 9 12 8 19 28 50 48 44 45 36 44 51 52 54 55 53 53 51
54 53 53 53 49 47 43 48 46 34 20 29 25 26 24 23 19 19 18 15 24 24 17 17 14 12 10 8 11 7 18 25 40 30 33 41 37 36 50 49 53 55 54 54 56
54 53 53 51 49 50 50 47 34 28 23 23 24 21 20 20 20 20 21 14 15 17 14 14 16 12 10 9 9 13 13 20 37 32 26 30 32 32 44 48 49 54 55 53 57
53 52 52 51 40 49 48 37 28 18 23 17 19 23 19 20 20 19 16 14 13 9 9 12 12 12 10 9 10 9 11 10 14 28 28 37 33 32 37 41 48 53 55 53 54
52 51 51 50 51 49 40 32 20 27 15 16 16 19 19 19 19 15 13 12 14 14 11 11 7 9 12 8 7 18 8 9 16 20 18 35 32 32 42 43 46 52 54 54 54
51 49 49 50 51 49 37 30 26 19 19 19 18 23 24 24 18 14 13 12 12 13 11 8 6 8 10 12 8 9 8 17 13 25 22 27 32 38 45 46 49 52 53 53 53
50 50 48 51 50 39 32 33 33 28 23 19 16 22 22 21 24 15 12 14 18 14 13 9 7 9 13 12 11 20 7 4 6 12 29 31 33 35 41 44 46 51 52 52 52
51 41 45 50 40 35 31 31 32 28 27 20 17 19 28 24 27 26 26 27 39 28 12 10 10 10 14 14 15 15 15 7 7 13 11 12 30 40 44 44 42 47 52 52 52
52 36 42 41 34 37 34 32 35 29 30 29 30 30 29 28 33 35 36 39 41 34 21 27 15 20 23 24 19 12 14 9 8 14 13 22 16 41 44 46 49 49 48 53 53
49 49 46 36 33 36 38 36 34 33 35 31 35 34 30 34 32 39 39 40 41 41 36 38 25 23 22 24 27 31 33 36 10 10 13 20 22 44 44 47 49 49 51 52 55
49 41 44 41 39 41 38 34 35 39 35 37 37 39 36 38 40 37 36 38 39 42 59 40 25 23 23 24 28 33 36 41 18 25 14 15 28 41 43 48 45 53 53 51 54
46 44 46 40 42 42 36 36 34 33 38 35 34 38 37 35 35 34 36 35 36 48 38 29 28 33 25 29 34 36 43 47 45 44 24 28 34 44 48 49 50 53 54 54 54
46 46 47 46 45 39 38 34 34 35 34 33 33 34 38 34 34 34 34 34 34 36 34 34 31 37 26 32 34 37 41 48 49 50 48 44 41 53 55 55 56 58 59 60 61
52 50 49 45 43 41 39 38 36 37 37 38 37 35 33 37 36 33 34 35 35 34 34 32 28 29 28 33 33 33 39 47 48 51 50 48 50 54 53 52 54 55 57 61 65
Lifted_Index
15 15 15 14 14 14 14 14 14 14 14 13 13 13 13 13 12 10 8 4 -1 -3 -2 -1 -1 -2 -2 -2 -1 -1 -0 -0 -0 -0 -1 -1 -2 -2 -2 -2 -2 -2 -2 -3 -3
15 15 15 15 14 14 14 14 14 14 14 13 13 13 12 12 11 10 7 2 -2 -3 -2 -1 -2 -2 -2 -2 -1 -1 -0 -1 -1 -1 -1 -2 -2 -2 -2 -2 -2 -2 -2 -3 -3
15 15 15 14 14 14 14 14 14 14 14 14 13 12 12 11 10 8 5 -0 -3 -2 -1 -1 -2 -3 -2 -2 -1 -1 -1 -1 -2 -1 -1 -2 -2 -2 -2 -1 -1 -1 -2 -3 -3
14 14 14 14 14 14 14 14 14 14 14 14 13 12 11 10 8 5 1 -2 -3 -2 -1 -1 -2 -2 -2 -2 -1 -1 -1 -2 -2 -2 -2 -2 -2 -2 -1 -1 -1 -1 -2 -2 -2
14 14 14 14 14 14 14 14 14 14 14 14 13 11 10 9 6 2 -2 -3 -3 -1 -0 -0 -1 -2 -1 -1 -1 -1 -2 -2 -2 -2 -2 -2 -2 -2 -2 -1 -0 -0 -1 -2 -2
13 13 13 13 14 14 14 14 14 15 14 14 12 11 9 8 5 1 -2 -3 -2 -1 0 1 -0 -1 -1 -1 -1 -1 -2 -2 -3 -3 -2 -2 -2 -2 -1 -1 -0 0 -0 -1 -1
13 13 13 13 13 13 13 14 14 14 14 13 12 10 9 8 6 3 0 0 1 1 3 2 0 -1 -0 0 -0 -1 -1 -2 -2 -3 -3 -2 -2 -2 -1 -1 0 1 1 -0 -1
13 13 13 13 13 13 13 13 13 13 13 12 11 10 9 9 8 6 4 4 4 4 4 2 0 -0 0 1 0 -1 -1 -2 -2 -3 -3 -2 -2 -2 -1 -0 0 1 1 1 0
14 14 13 13 13 13 13 12 11 10 11 11 10 9 8 8 8 8 7 6 5 4 3 2 0 -0 0 1 0 -0 -1 -1 -2 -3 -2 -2 -2 -2 -1 -1 -0 1 1 1 1
14 14 14 13 13 13 12 11 9 9 9 9 9 8 8 8 8 8 7 5 4 3 2 1 0 0 0 1 0 0 -0 -1 -1 -2 -2 -2 -2 -2 -2 -1 -0 1 1 1 1
14 14 14 13 12 12 11 10 10 9 9 8 8 8 7 7 8 7 6 4 3 3 3 2 1 1 1 1 1 0 0 0 -1 -2 -2 -2 -2 -2 -2 -1 -1 0 1 1 1
14 14 13 13 12 11 11 10 10 10 8 8 8 8 7 7 7 6 5 4 4 4 4 3 2 2 2 1 1 1 0 0 -1 -2 -2 -2 -1 -1 -2 -2 -1 -1 0 1 1
13 13 12 12 11 10 10 10 10 9 7 7 7 7 7 7 7 6 5 4 4 4 4 3 2 2 2 2 1 1 0 -0 -1 -2 -1 -1 -1 -1 -1 -2 -2 -1 -1 0 1
12 12 12 11 10 9 9 9 10 8 6 5 6 7 7 7 7 7 6 6 5 4 4 3 3 3 2 2 2 1 0 0 -0 -0 -0 -0 -0 -0 -1 -2 -2 -2 -2 -1 -0
11 11 11 10 9 8 8 8 8 7 4 4 6 6 7 6 6 6 7 6 5 5 4 3 3 3 2 2 2 2 1 1 1 1 1 0 0 0 -0 -1 -2 -2 -2 -2 -1
10 10 10 9 8 7 7 7 6 5 3 4 5 5 5 5 5 5 6 6 5 5 4 3 3 2 2 2 2 2 1 1 1 1 0 0 0 0 0 -0 -1 -2 -2 -2 -2
9 9 9 8 8 7 7 6 5 4 4 4 4 4 4 4 4 4 4 4 4 4 3 2 2 2 2 2 2 2 1 1 0 -0 0 0 1 1 0 -0 -1 -2 -2 -2 -2
8 7 7 7 7 7 6 5 4 4 4 4 3 4 4 4 3 3 3 3 3 3 2 2 1 1 1 1 1 1 1 1 0 -0 0 0 1 0 0 -0 -0 -1 -2 -2 -3
6 6 6 6 6 6 5 4 4 4 4 4 3 3 3 3 3 2 2 3 3 3 3 1 1 1 1 1 1 1 1 1 0 0 0 0 0 -0 -1 -1 -1 -1 -1 -2 -2
5 5 5 6 6 5 4 4 4 4 4 4 3 3 2 2 2 2 2 2 2 3 3 2 1 1 1 1 0 0 1 1 1 0 0 0 0 -0 -1 -1 -1 -1 -1 -2 -2
4 5 6 6 6 4 4 4 4 4 4 3 3 3 2 2 2 2 2 2 2 2 2 2 1 1 1 1 0 0 1 1 1 1 0 -0 -0 -0 -0 -0 -1 -1 -1 -2 -2
4 5 6 6 5 4 3 4 4 4 4 4 3 3 2 2 1 1 1 2 2 2 2 2 2 1 1 1 1 1 1 1 1 1 0 0 0 0 0 1 0 -1 -1 -2 -2
4 5 6 5 4 3 3 4 4 4 4 4 3 3 3 2 1 1 1 1 1 1 2 2 2 1 1 1 1 1 1 1 1 1 0 0 0 -0 0 1 1 -0 -1 -1 -2
4 4 5 5 4 3 3 3 3 3 3 3 3 3 3 2 2 2 1 1 1 1 2 2 2 1 1 1 1 1 1 0 1 1 0 0 0 -0 -0 -0 0 -0 -1 -1 -2
4 4 4 4 4 4 3 3 3 3 3 3 3 3 3 2 2 2 2 1 1 1 1 2 2 1 1 1 1 1 0 -0 -0 0 0 0 -0 -1 -1 -1 -1 -2 -2 -2 -3
5 5 4 4 4 4 4 4 3 3 3 3 3 3 3 3 3 2 2 2 1 1 1 1 2 2 1 1 1 1 0 -0 -0 -0 0 -0 -1 -2 -2 -3 -3 -3 -4 -5 -5
6 6 5 4 4 4 4 4 4 4 3 3 3 3 3 3 3 2 2 2 2 1 1 1 2 2 2 1 1 1 0 -0 -0 -0 -0 -0 -1 -2 -3 -4 -4 -5 -6 -6 -7